View from above orbital plane
|
View from above satellite
|
Ground track
|
The orbit data is extracted from the following two-line orbital elements,
1 43145U 18005A 21108.89675342 0.00000000 00000-0 00000-0 0 00
2 43145 106.0266 229.9974 0005003 297.4920 62.5079 13.48007642 07
Epoch (UTC): | 18 April 2021 21:31:19 |
Eccentricity: | 0.0005003 |
inclination: | 106.0266° |
perigee height: | 1076 km |
apogee height: | 1083 km |
right ascension of ascending node: | 229.9974° |
argument of perigee: | 297.4920° |
revolutions per day: | 13.48007642 |
mean anomaly at epoch: | 62.5079° |
orbit number at epoch: | 0 |
The dashed part of the orbit path shows where the satellite is in the earth's shadow,
|
|